DELTA 1 DEB, 10712

Orbit data source: Space-Track

DELTA 1 DEB, 10712 is space debris in SSO originally from a launch on Thu, 29 Jul 1976 UTC launched from the Air Force Western Test Range (AFWTR). Debris objects in space refer to the collection of defunct objects orbiting the Earth. Examples of debris include non-operational satellites, rocket bodies, and fragments generated from explosions, collisions, or faulty payload assembly.

Loading next visibility...
Identifier
10712, 1976-077AH
Orbit
SSO
Last TLE update
1 day ago
Origin
Manufacturer
Unknown
Mission
Spacecraft
Bus & Motor
Unknown
Mass
Unknown
Launch date (UTC)
1976-07-29 (49 years ago)
Launch vehicle
Unknown
Launch site
Air Force Western Test Range (AFWTR)
Object type
Payload
Rocket body
Debris
Shape & HBR
Unknown
Radar Cross Section
Small (<0.1 m²)

Expand to show TLE details & history

TLE from 1 day ago
0 DELTA 1 DEB
1 10712U 76077AH  25128.04039370  .00000786  00000-0  61811-2 0  9992
2 10712 102.2227 255.2080 0079361 129.0519 297.0560 12.39749934197438
Epoch: 2025-05-08T00:58Z
Definitive object data (Epoch: 2025-05-08T00:58:10.015Z)
Latitude
62.69578°
Longitude
-10.13133°
Altitude
1,490.152 km
Speed
7.137 km/s
True Right ascension
15h 22m 06s
True Declination
62° 34' 06"
Sunlit
Object was in daylight at TLE epoch
Visualization TLE readout
Latitude
-1.94967°
Longitude
-164.55025°
Altitude
1,474.455 km
Speed
7.142 km/s
Apparent Right ascension
04h 56m 27s
Apparent Declination
-18° 48' 20"
Sunlit
Object is in daylight
Visualization observer readout
Local Sidereal Time
16:43:41
Azimuth
351.647° N
Elevation
-68.711°
Doppler factor
1
Orbital elements
Apogee altitude
1,567.815 km
Perigee altitude
1,442.688 km
Semi-major axis
7,883.389 km
Eccentricity
0.0079361
Inclination
102.2227°
RAAN
255.208°
Arg. of periapsis
129.0519°
True anomaly
296.24247°
Mean anomaly
297.056°
Eccentric anomaly
296.6496°
Mean motion
3.1008 °/min
BSTAR
0.0061811
Orbital period
116.1 mins
Loading maneuver chart data...
Loading SW <> Apogee altitude chart data...
Loading historical data...
Loading historical data...
Loading historical data...
Loading historical data...
Loading historical data...
Loading historical data...
Loading historical data...

DELTA 1 DEB Visibility forecast

Observer location: undefined°, undefined°

Span
Click to sort rows by Start time (UTC) header in descending order
Start Az.
Max El. time (UTC)
Max El. Az.
Max El.
End time (UTC)
End Az.
12 mins2025-05-09 09:38:29.914Z213.924° SW2025-05-09 09:44:29.914Z263.693° W24.381°2025-05-09 09:50:29.914Z314.387° NW
10 mins2025-05-09 19:54:29.914Z53.507° ENE2025-05-09 19:59:29.914Z96.348° ESE20.64°2025-05-09 20:04:29.914Z137.355° SSE
14 mins2025-05-09 21:47:29.914Z13.134° NNE2025-05-09 21:53:29.914Z316.179° NNW43.825°2025-05-09 22:01:29.914Z208.92° SW
7 mins2025-05-09 23:43:29.914Z336.105° NNW2025-05-09 23:46:29.914Z311.576° NW16.379°2025-05-09 23:50:29.914Z280.238° WNW
13 mins2025-05-10 06:59:29.914Z117.746° SE2025-05-10 07:05:29.914Z63.406° ENE31.489°2025-05-10 07:12:29.914Z358.947° N
|